This is the latest recevied weather packets stored in our database for station/object KG5MMT-15. If no packets are shown the sender has not sent any weather packets the latest 1 day(s).
| Time | Temp. | Humidity | Pressure | Rain* | Wind** | Luminosity | Snow |
|---|---|---|---|---|---|---|---|
| 1778015836 | 16.11° C | 41% | 0 hPa | 0 mm | 1.34 m/s, 226° | - | - |
| 1778015536 | 16.67° C | 41% | 0 hPa | 0 mm | 0 m/s | - | - |
| 1778015236 | 15.56° C | 43% | 0 hPa | 0 mm | 0.89 m/s, 135° | - | - |
| 1778014936 | 16.11° C | 41% | 0 hPa | 0 mm | 2.68 m/s, 274° | - | - |
| 1778014636 | 16.11° C | 40% | 0 hPa | 0 mm | 0.89 m/s, 351° | - | - |
| 1778014336 | 16.11° C | 43% | 0 hPa | 0 mm | 1.79 m/s, 299° | - | - |
| 1778014036 | 15.56° C | 43% | 0 hPa | 0 mm | 0.89 m/s, 293° | - | - |
| 1778013736 | 15° C | 47% | 0 hPa | 0 mm | 1.79 m/s, 329° | - | - |
| 1778013436 | 14.44° C | 49% | 0 hPa | 0 mm | 0.89 m/s, 185° | - | - |
| 1778013136 | 13.89° C | 50% | 0 hPa | 0 mm | 1.79 m/s, 338° | - | - |
| 1778012836 | 13.89° C | 49% | 0 hPa | 0 mm | 0.89 m/s, 358° | - | - |
| 1778012536 | 14.44° C | 51% | 0 hPa | 0 mm | 1.79 m/s, 205° | - | - |
| 1778012236 | 14.44° C | 52% | 0 hPa | 0 mm | 0 m/s | - | - |
| 1778011936 | 14.44° C | 44% | 0 hPa | 0 mm | 2.68 m/s, 1° | - | - |
| 1778011636 | 15° C | 42% | 0 hPa | 0 mm | 2.68 m/s, 312° | - | - |
| 1778011336 | 15° C | 42% | 0 hPa | 0 mm | 2.68 m/s, 358° | - | - |
| 1778011036 | 15° C | 44% | 0 hPa | 0 mm | 1.79 m/s, 358° | - | - |
| 1778010736 | 14.44° C | 44% | 0 hPa | 0 mm | 1.34 m/s, 192° | - | - |
| 1778010436 | 14.44° C | 44% | 0 hPa | 0 mm | 1.79 m/s, 67° | - | - |
| 1778010136 | 15° C | 43% | 0 hPa | 0 mm | 1.79 m/s, 305° | - | - |
| 1778009836 | 15° C | 43% | 0 hPa | 0 mm | 0 m/s | - | - |
| 1778009536 | 15° C | 43% | 0 hPa | 0 mm | 0 m/s | - | - |
| 1778009236 | 15° C | 43% | 0 hPa | 0 mm | 5.81 m/s, 309° | - | - |
| 1778008936 | 15° C | 42% | 0 hPa | 0 mm | 3.13 m/s, 315° | - | - |
| 1778008636 | 15° C | 41% | 0 hPa | 0 mm | 1.79 m/s, 286° | - | - |
* Rain latest hour (hover to see other rain measurements)
** Current wind speed in m/s (hover to see current wind gust speed)